EW5545 Weather Reports


Display with metric or nautical units.
time (UTC)temp
F
wind
direction
speed
MPH
gust
MPH
rain 1hr
in
rain 24hr
in
rain mn
in
humidity
%
barometer
mb
20190825134515 80 42 2.0 12.0 0.00 0.00 0.00 66 1016.0
20190825134020 80 31 5.0 12.0 0.00 0.00 0.00 67 1015.9
20190825133513 80 28 5.0 9.0 0.00 0.00 0.00 69 1015.8
20190825133017 80 30 5.0 9.0 0.00 0.00 0.00 69 1015.9
20190825132512 80 26 5.0 8.0 0.00 0.00 0.00 69 1015.9
20190825132017 80 36 3.0 9.0 0.00 0.00 0.00 68 1015.9
20190825131512 80 31 6.0 10.0 0.00 0.00 0.00 68 1015.9
20190825131017 80 27 5.0 10.0 0.00 0.00 0.00 67 1016.0
20190825130514 81 28 6.0 10.0 0.00 0.00 0.00 66 1016.1
20190825130015 81 26 5.0 10.0 0.00 0.00 0.00 66 1016.2
20190825125512 81 24 7.0 12.0 0.00 0.00 0.00 64 1016.1
20190825125028 82 22 6.0 10.0 0.00 0.00 0.00 60 1016.2
20190825124520 83 24 5.0 10.0 0.00 0.00 0.00 58 1016.3
20190825124025 83 26 6.0 7.0 0.00 0.00 0.00 57 1016.0
20190825123519 83 36 6.0 16.0 0.00 0.00 0.00 56 1015.9
20190825123018 84 41 7.0 12.0 0.00 0.00 0.00 53 1015.8
20190825122514 84 33 6.0 12.0 0.00 0.00 0.00 53 1015.8
20190825122018 85 37 5.0 8.0 0.00 0.00 0.00 52 1015.9
20190825121512 85 32 7.0 12.0 0.00 0.00 0.00 52 1016.0
20190825121019 86 33 8.0 13.0 0.00 0.00 0.00 51 1016.0
20190825120514 86 25 5.0 12.0 0.00 0.00 0.00 51 1016.0
20190825120017 86 31 6.0 12.0 0.00 0.00 0.00 50 1016.0
20190825115511 86 20 4.0 9.0 0.00 0.00 0.00 50 1016.1
20190825115022 86 11 6.0 12.0 0.00 0.00 0.00 50 1016.2
20190825114519 86 30 5.0 9.0 0.00 0.00 0.00 52 1016.2
20190825114017 86 23 4.0 10.0 0.00 0.00 0.00 52 1016.2
20190825113512 85 31 5.0 12.0 0.00 0.00 0.00 52 1016.2
20190825113021 86 34 3.0 10.0 0.00 0.00 0.00 52 1016.3
20190825112512 86 30 4.0 10.0 0.00 0.00 0.00 53 1016.3
20190825112017 86 36 7.0 13.0 0.00 0.00 0.00 53 1016.3
20190825111512 86 36 3.0 7.0 0.00 0.00 0.00 53 1016.3
20190825111019 86 28 5.0 13.0 0.00 0.00 0.00 54 1016.3
20190825110513 86 36 5.0 9.0 0.00 0.00 0.00 54 1016.3
20190825110016 86 28 3.0 9.0 0.00 0.00 0.00 53 1016.4
20190825105511 86 35 3.0 7.0 0.00 0.00 0.00 55 1016.4
20190825105017 85 36 2.0 6.0 0.00 0.00 0.00 54 1016.4
20190825104511 86 26 5.0 10.0 0.00 0.00 0.00 53 1016.5
20190825104016 86 337 3.0 8.0 0.00 0.00 0.00 53 1016.6
20190825103512 86 34 5.0 9.0 0.00 0.00 0.00 54 1016.6
20190825103017 85 39 3.0 9.0 0.00 0.00 0.00 55 1016.6
20190825102511 85 36 6.0 12.0 0.00 0.00 0.00 55 1016.7
20190825102017 86 25 4.0 8.0 0.00 0.00 0.00 54 1016.7
20190825101512 85 339 2.0 6.0 0.00 0.00 0.00 55 1016.8
20190825101017 85 29 3.0 6.0 0.00 0.00 0.00 56 1016.8
20190825100513 85 9 3.0 9.0 0.00 0.00 0.00 57 1016.9
20190825100016 85 11 3.0 9.0 0.00 0.00 0.00 57 1016.9
20190825095512 85 30 3.0 7.0 0.00 0.00 0.00 58 1016.9
20190825095017 84 37 4.0 7.0 0.00 0.00 0.00 58 1017.0
20190825094549 84 34 5.0 6.0 0.00 0.00 0.00 58 1017.0
20190825094025 84 28 6.0 8.0 0.00 0.00 0.00 56 1017.0
20190825093530 84 32 6.0 9.0 0.00 0.00 0.00 56 1017.1
20190825093019 83 35 5.0 10.0 0.00 0.00 0.00 58 1017.1
20190825092513 84 32 2.0 10.0 0.00 0.00 0.00 55 1017.1
20190825092016 83 26 3.0 6.0 0.00 0.00 0.00 58 1017.1
20190825091512 83 31 4.0 7.0 0.00 0.00 0.00 58 1017.2
20190825091020 83 18 3.0 7.0 0.00 0.00 0.00 60 1017.2
20190825090513 82 358 4.0 7.0 0.00 0.00 0.00 60 1017.2
20190825090015 83 49 3.0 8.0 0.00 0.00 0.00 60 1017.2
20190825085510 82 34 6.0 12.0 0.00 0.00 0.00 61 1017.2
20190825085015 82 34 3.0 8.0 0.00 0.00 0.00 64 1017.2
20190825084511 82 302 2.0 8.0 0.00 0.00 0.00 65 1017.2
20190825084013 81 31 4.0 7.0 0.00 0.00 0.00 66 1017.3
20190825083510 81 39 3.0 6.0 0.00 0.00 0.00 66 1017.3
20190825083013 81 20 3.0 10.0 0.00 0.00 0.00 66 1017.3
20190825082510 81 34 6.0 10.0 0.00 0.00 0.00 66 1017.3
20190825082016 81 34 2.0 9.0 0.00 0.00 0.00 68 1017.2
20190825081509 81 34 3.0 9.0 0.00 0.00 0.00 69 1017.2
20190825081016 80 42 3.0 5.0 0.00 0.00 0.00 69 1017.2
20190825080510 80 37 3.0 6.0 0.00 0.00 0.00 68 1017.1
20190825080013 80 30 4.0 8.0 0.00 0.00 0.00 69 1017.2
20190825075510 80 32 1.0 5.0 0.00 0.00 0.00 72 1017.1
20190825075018 79 28 4.0 6.0 0.00 0.00 0.00 72 1017.1
20190825074514 79 39 3.0 8.0 0.00 0.00 0.00 72 1017.1
20190825074014 79 35 6.0 9.0 0.00 0.00 0.00 72 1017.1
20190825073511 79 8 2.0 3.0 0.00 0.00 0.00 73 1017.1
20190825073013 79 42 1.0 3.0 0.00 0.00 0.00 74 1017.1
20190825072509 78 34 2.0 7.0 0.00 0.00 0.00 74 1017.0
20190825072013 78 34 3.0 7.0 0.00 0.00 0.00 75 1017.0
20190825071511 78 32 2.0 6.0 0.00 0.00 0.00 76 1017.0
20190825071016 78 38 2.0 8.0 0.00 0.00 0.00 77 1016.9
20190825070511 78 34 3.0 6.0 0.00 0.00 0.00 76 1016.9
20190825070012 77 31 2.0 5.0 0.00 0.00 0.00 77 1016.9
20190825065510 77 27 3.0 6.0 0.00 0.00 0.00 78 1016.9
20190825065015 77 32 5.0 8.0 0.00 0.00 0.00 78 1016.9
20190825064513 76 34 4.0 7.0 0.00 0.00 0.00 79 1016.9
20190825064020 76 34 5.0 10.0 0.00 0.00 0.00 79 1017.0
20190825063540 76 32 5.0 8.0 0.00 0.00 0.00 79 1016.9
20190825063017 76 39 3.0 5.0 0.00 0.00 0.00 78 1016.9
20190825062513 76 41 2.0 3.0 0.00 0.00 0.00 77 1016.8
20190825062018 76 28 1.0 3.0 0.00 0.00 0.00 78 1016.9
20190825061512 76 34 2.0 3.0 0.00 0.00 0.00 78 1016.8
20190825061019 75 35 3.0 5.0 0.00 0.00 0.00 77 1016.8
20190825060512 75 38 2.0 5.0 0.00 0.00 0.00 78 1016.8
20190825060012 75 22 0.0 3.0 0.00 0.00 0.00 79 1016.8
20190825055514 75 40 1.0 3.0 0.00 0.00 0.00 79 1016.7
20190825054520 74 294 0.0 2.0 0.00 0.00 0.00 80 1016.6
20190825054016 74 79 0.0 2.0 0.00 0.00 0.00 80 1016.6
20190825053512 74 10 0.0 1.0 0.00 0.00 0.00 80 1016.6
20190825053017 73 295 0.0 2.0 0.00 0.00 0.00 80 1016.6
20190825052511 73 320 2.0 3.0 0.00 0.00 0.00 80 1016.6
20190825052015 73 331 1.0 2.0 0.00 0.00 0.00 80 1016.6
20190825051512 73 359 0.0 2.0 0.00 0.00 0.00 81 1016.5
20190825051019 73 353 0.0 1.0 0.00 0.00 0.00 81 1016.5
20190825050513 72 260 0.0 1.0 0.00 0.00 0.00 81 1016.5
20190825050015 72 260 0.0 1.0 0.00 0.00 0.00 81 1016.6
20190825045511 72 260 1.0 2.0 0.00 0.00 0.00 81 1016.5
20190825045016 72 317 0.0 1.0 0.00 0.00 0.00 81 1016.5
20190825044511 72 335 1.0 2.0 0.00 0.00 0.00 82 1016.5
20190825044019 72 297 1.0 3.0 0.00 0.00 0.00 82 1016.4
20190825043513 72 21 0.0 1.0 0.00 0.00 0.00 82 1016.4
20190825043018 72 1 0.0 3.0 0.00 0.00 0.00 82 1016.4
20190825042511 71 329 0.0 1.0 0.00 0.00 0.00 83 1016.3
20190825042017 71 322 1.0 2.0 0.00 0.00 0.00 83 1016.4
20190825041511 71 308 1.0 2.0 0.00 0.00 0.00 83 1016.3
20190825041019 71 334 0.0 1.0 0.00 0.00 0.00 83 1016.3
20190825040514 71 302 0.0 0.0 0.00 0.00 0.00 83 1016.3
20190825040015 71 312 0.0 1.0 0.00 0.00 0.00 83 1016.3
20190825035512 71 279 1.0 3.0 0.00 0.00 0.00 82 1016.3
20190825034606 71 293 1.0 3.0 0.00 0.00 0.00 83 1016.2
20190825034023 71 279 1.0 3.0 0.00 0.00 0.00 83 1016.2
20190825033518 71 290 1.0 3.0 0.00 0.00 0.00 82 1016.2
20190825033019 71 293 2.0 3.0 0.00 0.00 0.00 82 1016.2
20190825032514 71 297 1.0 3.0 0.00 0.00 0.00 83 1016.2
20190825032017 71 292 0.0 3.0 0.00 0.00 0.00 82 1016.2
20190825031512 71 308 1.0 3.0 0.00 0.00 0.00 83 1016.2
20190825031018 71 329 1.0 3.0 0.00 0.00 0.00 83 1016.2
20190825030512 71 283 1.0 3.0 0.00 0.00 0.00 83 1016.2
20190825030014 71 26 1.0 3.0 0.00 0.00 0.00 83 1016.2
20190825025513 71 347 2.0 3.0 0.00 0.00 0.00 83 1016.3
20190825025018 71 321 0.0 2.0 0.00 0.00 0.00 83 1016.2
20190825024511 71 345 0.0 3.0 0.00 0.00 0.00 83 1016.2
20190825024016 71 346 1.0 3.0 0.00 0.00 0.00 83 1016.2
20190825023511 71 276 1.0 3.0 0.00 0.00 0.00 84 1016.2
20190825023016 71 23 0.0 1.0 0.00 0.00 0.00 84 1016.1
20190825022511 71 7 1.0 2.0 0.00 0.00 0.00 84 1016.2
20190825022015 71 265 1.0 3.0 0.00 0.00 0.00 84 1016.1
20190825021511 71 314 1.0 3.0 0.00 0.00 0.00 84 1016.1
20190825021017 71 354 0.0 3.0 0.00 0.00 0.00 84 1016.1
20190825020513 71 359 1.0 2.0 0.00 0.00 0.00 85 1016.1
20190825020014 71 323 0.0 1.0 0.00 0.00 0.00 85 1016.1
20190825015512 71 316 0.0 2.0 0.00 0.00 0.00 85 1016.1
20190825015025 71 243 1.0 3.0 0.00 0.00 0.00 86 1016.2
20190825014524 71 241 1.0 3.0 0.00 0.00 0.00 86 1016.2
20190825014015 71 280 1.0 3.0 0.00 0.00 0.00 86 1016.2
20190825013512 72 248 1.0 3.0 0.00 0.00 0.00 86 1016.2
20190825013016 72 249 1.0 3.0 0.00 0.00 0.00 87 1016.3
20190825012511 72 243 2.0 5.0 0.00 0.00 0.00 87 1016.3
20190825012015 72 257 3.0 5.0 0.00 0.00 0.00 87 1016.3
20190825011511 72 250 3.0 5.0 0.00 0.00 0.00 87 1016.3
20190825011015 72 240 1.0 3.0 0.00 0.00 0.00 88 1016.4
20190825010515 72 241 1.0 2.0 0.00 0.00 0.00 88 1016.5
20190825010014 72 258 1.0 5.0 0.00 0.00 0.00 89 1016.5
20190825005515 72 210 0.0 1.0 0.00 0.00 0.00 89 1016.4
20190825005017 72 315 0.0 2.0 0.00 0.00 0.00 89 1016.5
20190825004512 73 336 0.0 2.0 0.00 0.00 0.00 89 1016.5
20190825004104 73 326 0.0 3.0 0.00 0.00 0.00 90 1016.5
20190825003510 73 289 1.0 2.0 0.00 0.00 0.00 90 1016.5
20190825003012 73 246 1.0 3.0 0.00 0.00 0.00 90 1016.5
20190825002509 73 321 0.0 3.0 0.00 0.00 0.00 90 1016.6
20190825002012 73 256 0.0 1.0 0.00 0.00 0.00 90 1016.6
20190825001509 73 323 1.0 3.0 0.00 0.00 0.00 90 1016.6
20190825001015 73 250 2.0 3.0 0.00 0.00 0.00 89 1016.7
20190825000510 73 230 0.0 2.0 0.00 0.00 0.00 90 1016.7
20190825000012 73 305 0.0 1.0 0.00 0.00 0.00 90 1016.7
20190824235510 73 307 1.0 2.0 0.00 0.00 0.00 90 1016.7
20190824235012 73 226 0.0 1.0 0.00 0.00 0.00 89 1016.6
20190824234519 73 226 0.0 2.0 0.00 0.00 0.00 89 1016.7
20190824234013 73 291 1.0 3.0 0.00 0.00 0.00 89 1016.7
20190824233509 73 292 2.0 3.0 0.00 0.00 0.00 89 1016.8
20190824233013 73 350 0.0 1.0 0.00 0.00 0.00 89 1016.8
20190824232509 73 314 0.0 2.0 0.00 0.00 0.00 89 1016.8
20190824232012 73 229 2.0 3.0 0.00 0.00 0.00 89 1016.8
20190824231509 73 264 1.0 3.0 0.00 0.00 0.00 89 1016.8
20190824231014 73 293 1.0 3.0 0.00 0.00 0.00 89 1016.8
20190824230510 73 265 1.0 1.0 0.00 0.00 0.00 89 1016.9
20190824230013 74 293 1.0 3.0 0.00 0.00 0.00 88 1016.9
20190824225509 74 342 0.0 1.0 0.00 0.00 0.00 88 1017.0
20190824225012 74 309 0.0 1.0 0.00 0.00 0.00 88 1017.0
20190824224509 74 309 0.0 1.0 0.00 0.00 0.00 88 1017.0
20190824224012 74 318 1.0 2.0 0.00 0.00 0.00 88 1017.0
20190824223510 74 325 0.0 2.0 0.00 0.00 0.00 88 1017.0
20190824223013 74 11 1.0 2.0 0.00 0.00 0.00 88 1017.0
20190824222510 74 293 0.0 2.0 0.00 0.00 0.00 88 1017.0
20190824222012 74 12 0.0 3.0 0.00 0.00 0.00 88 1017.0
20190824221510 74 275 0.0 3.0 0.00 0.00 0.00 88 1017.0
20190824221011 75 294 1.0 2.0 0.00 0.00 0.00 88 1017.1
20190824220510 75 31 1.0 3.0 0.00 0.00 0.00 88 1017.1
20190824220012 75 337 1.0 3.0 0.00 0.00 0.00 87 1017.1
20190824215509 75 343 1.0 3.0 0.00 0.00 0.00 87 1017.1
20190824215014 75 297 1.0 2.0 0.00 0.00 0.00 87 1017.1
20190824214531 75 7 1.0 3.0 0.00 0.00 0.00 87 1017.2
20190824214014 75 31 1.0 2.0 0.00 0.00 0.00 87 1017.2
20190824213515 75 31 2.0 3.0 0.00 0.00 0.00 87 1017.3
20190824213013 75 37 2.0 3.0 0.00 0.00 0.00 87 1017.2
20190824212511 75 312 2.0 5.0 0.00 0.00 0.00 87 1017.2
20190824212012 75 19 1.0 3.0 0.00 0.00 0.00 87 1017.2
20190824211509 75 21 1.0 3.0 0.00 0.00 0.00 87 1017.2
20190824211014 75 3 1.0 3.0 0.00 0.00 0.00 87 1017.2
20190824210513 75 298 0.0 2.0 0.00 0.00 0.00 87 1017.2
20190824210011 75 313 1.0 3.0 0.00 0.00 0.00 87 1017.2
20190824205512 75 29 0.0 1.0 0.00 0.00 0.00 87 1017.3
20190824205014 75 278 0.0 2.0 0.00 0.00 0.00 87 1017.2
20190824204510 75 257 1.0 2.0 0.00 0.00 0.00 86 1017.3
20190824204013 75 277 1.0 3.0 0.00 0.00 0.00 86 1017.3
20190824203512 75 273 1.0 3.0 0.00 0.00 0.00 87 1017.3
20190824203012 75 332 1.0 3.0 0.00 0.00 0.00 87 1017.2
20190824202509 75 308 1.0 2.0 0.00 0.00 0.00 87 1017.2
20190824202011 75 45 2.0 5.0 0.00 0.00 0.00 87 1017.2
20190824201509 75 16 2.0 3.0 0.00 0.00 0.00 87 1017.2
20190824201014 75 35 2.0 5.0 0.00 0.00 0.00 86 1017.2
20190824200510 75 44 1.0 3.0 0.00 0.00 0.00 86 1017.2
20190824200012 75 328 2.0 5.0 0.00 0.00 0.00 85 1017.2
20190824195510 76 289 1.0 3.0 0.00 0.00 0.00 85 1017.2
20190824195013 76 326 0.0 3.0 0.00 0.00 0.00 86 1017.2
20190824194520 76 29 1.0 3.0 0.00 0.00 0.00 86 1017.1
20190824194011 76 32 3.0 5.0 0.00 0.00 0.00 86 1017.1
20190824193509 76 33 2.0 5.0 0.00 0.00 0.00 85 1017.1
20190824193012 76 33 2.0 5.0 0.00 0.00 0.00 84 1017.1
20190824192509 76 30 3.0 5.0 0.00 0.00 0.00 84 1017.1
20190824192012 76 28 1.0 3.0 0.00 0.00 0.00 83 1017.1
20190824191509 76 39 2.0 5.0 0.00 0.00 0.00 83 1017.0
20190824191012 76 29 1.0 5.0 0.00 0.00 0.00 82 1016.9
20190824190511 76 32 1.0 3.0 0.00 0.00 0.00 82 1016.9
20190824190010 76 32 1.0 3.0 0.00 0.00 0.00 82 1016.9
20190824185509 76 26 3.0 7.0 0.00 0.00 0.00 81 1016.9
20190824185013 76 36 2.0 5.0 0.00 0.00 0.00 81 1016.8
20190824184529 76 31 1.0 5.0 0.00 0.00 0.00 80 1016.8
20190824184028 77 25 1.0 2.0 0.00 0.00 0.00 79 1016.8
20190824183511 77 30 1.0 5.0 0.00 0.00 0.00 78 1016.7
20190824183014 77 33 1.0 3.0 0.00 0.00 0.00 77 1016.6
20190824182511 77 35 1.0 3.0 0.00 0.00 0.00 77 1016.7
20190824182012 77 36 2.0 3.0 0.00 0.00 0.00 75 1016.6
20190824181510 77 21 1.0 3.0 0.00 0.00 0.00 75 1016.6
20190824181015 77 25 0.0 2.0 0.00 0.00 0.00 75 1016.6
20190824180510 77 28 2.0 3.0 0.00 0.00 0.00 75 1016.6
20190824180011 77 32 1.0 3.0 0.00 0.00 0.00 76 1016.6
20190824175516 77 194 0.0 1.0 0.00 0.00 0.00 77 1016.6
20190824175013 77 200 0.0 1.0 0.00 0.00 0.00 77 1016.6
20190824174518 77 200 0.0 1.0 0.00 0.00 0.00 76 1016.7
20190824174011 77 205 1.0 2.0 0.00 0.00 0.00 76 1016.7
20190824173509 77 101 0.0 1.0 0.00 0.00 0.00 75 1016.7
20190824173011 77 205 0.0 2.0 0.00 0.00 0.00 75 1016.6
20190824172509 78 222 1.0 3.0 0.00 0.00 0.00 74 1016.5
20190824172011 78 240 2.0 3.0 0.00 0.00 0.00 74 1016.4
20190824171508 78 36 1.0 5.0 0.00 0.00 0.00 74 1016.3
20190824171014 78 14 2.0 5.0 0.00 0.00 0.00 74 1016.3
20190824170511 78 27 3.0 8.0 0.00 0.00 0.00 74 1016.1
20190824170011 78 18 4.0 8.0 0.00 0.00 0.00 74 1016.0
20190824165509 77 7 3.0 7.0 0.00 0.00 0.00 73 1016.2
20190824165011 77 333 2.0 3.0 0.00 0.00 0.00 72 1016.5
20190824164508 77 249 2.0 5.0 0.00 0.00 0.00 72 1016.8
20190824164011 77 253 3.0 6.0 0.00 0.00 0.00 71 1016.8
20190824163510 77 242 3.0 6.0 0.00 0.00 0.00 72 1017.0
20190824163012 77 247 2.0 6.0 0.00 0.00 0.00 71 1016.9
20190824162509 78 230 3.0 6.0 0.00 0.00 0.00 72 1017.0
20190824162011 78 256 2.0 9.0 0.00 0.00 0.00 71 1017.0
20190824161509 78 233 4.0 9.0 0.00 0.00 0.00 72 1017.1
20190824161012 78 222 5.0 10.0 0.00 0.00 0.00 74 1017.2
20190824160513 79 220 2.0 3.0 0.00 0.00 0.00 77 1017.4
20190824160011 79 232 2.0 3.0 0.00 0.00 0.00 78 1017.4
20190824155509 79 0 1.0 3.0 0.00 0.00 0.00 78 1017.1
20190824155012 79 322 1.0 3.0 0.00 0.00 0.00 77 1016.9
20190824154535 79 344 1.0 3.0 0.00 0.00 0.00 77 1016.8
20190824154019 79 29 1.0 5.0 0.00 0.00 0.00 77 1016.8
20190824153515 79 33 2.0 5.0 0.00 0.00 0.00 77 1016.9
20190824153011 79 24 4.0 8.0 0.00 0.00 0.00 76 1016.9
20190824152512 79 7 2.0 7.0 0.00 0.00 0.00 76 1016.8
20190824152011 79 36 3.0 7.0 0.00 0.00 0.00 75 1016.8
20190824151509 80 38 2.0 7.0 0.00 0.00 0.00 75 1016.6
20190824151011 80 29 5.0 7.0 0.00 0.00 0.00 74 1016.6
20190824150510 80 31 3.0 6.0 0.00 0.00 0.00 74 1016.5
20190824150011 80 19 3.0 9.0 0.00 0.00 0.00 74 1016.3
20190824145508 80 29 5.0 9.0 0.00 0.00 0.00 73 1016.3
20190824145021 81 32 5.0 12.0 0.00 0.00 0.00 72 1016.1
20190824144509 81 34 5.0 8.0 0.00 0.00 0.00 72 1016.2
20190824144014 81 32 5.0 9.0 0.00 0.00 0.00 73 1016.3
20190824143509 81 28 5.0 9.0 0.00 0.00 0.00 72 1016.3
20190824143011 81 29 5.0 12.0 0.00 0.00 0.00 71 1016.3
20190824142509 82 33 6.0 12.0 0.00 0.00 0.00 71 1016.4
20190824142011 82 30 6.0 9.0 0.00 0.00 0.00 70 1016.3
20190824141508 82 31 5.0 12.0 0.00 0.00 0.00 70 1016.4
20190824141014 82 32 4.0 10.0 0.00 0.00 0.00 69 1016.5
20190824140511 83 25 7.0 12.0 0.00 0.00 0.00 67 1016.5
20190824140010 83 24 6.0 10.0 0.00 0.00 0.00 67 1016.5
20190824135509 83 24 6.0 10.0 0.00 0.00 0.00 67 1016.6
20190824135014 83 32 4.0 10.0 0.00 0.00 0.00 67 1016.7